|
NORAD ID: 35501 Int'l Code: 2009-036D
Perigee: 1,211.1 km
Apogee: 1,513.6 km
Inclination: 82.5 °
Period: 112.8 minutes
Semi major axis: 7733 km
Launch date: July 6, 2009
Source: Commonwealth of Independent States (former USSR) (CIS)
Note: This is a ROCKET BODY
Two Line Element Set (TLE):
1 35501U 09036D 13138.52181221 .00000005 00000-0 -22281-4 0 6442
2 35501 082.4913 116.7317 0195606 229.7348 282.4665 12.76596579180213
Source:
NASA's NSSDC Master Catalog entry for SL-19 R/B
|